Time,TemperatureF,DewpointF,PressureIn,WindDirection,WindDirectionDegrees,WindSpeedMPH,WindSpeedGustMPH,Humidity,HourlyPrecipIn,Conditions,Clouds,dailyrainin,SolarRadiationWatts/m^2,SoftwareType,DateUTC
2013-03-09 00:29:00,36.5,29.3,30.05,NNW,327,0.0,7.0,75,0.00,,,0.00,0,Wunderground v.1.15,2013-03-09 05:29:00,
2013-03-09 00:59:00,34.9,26.8,30.06,NNW,327,1.0,7.0,72,0.00,,,0.00,0,Wunderground v.1.15,2013-03-09 05:59:00,
2013-03-09 01:29:00,33.7,26.0,30.07,NNW,327,0.0,7.0,73,0.00,,,0.00,0,Wunderground v.1.15,2013-03-09 06:29:00,
2013-03-09 01:59:00,32.8,25.7,30.07,NW,325,0.0,7.0,75,0.00,,,0.00,0,Wunderground v.1.15,2013-03-09 06:59:00,
2013-03-09 02:29:00,32.4,25.7,30.07,NW,325,2.0,7.0,76,0.00,,,0.00,0,Wunderground v.1.15,2013-03-09 07:29:00,
2013-03-09 02:59:00,33.5,26.4,30.07,NW,324,0.0,7.0,75,0.00,,,0.00,0,Wunderground v.1.15,2013-03-09 07:59:00,
2013-03-09 03:29:00,32.5,25.5,30.05,NW,323,1.0,7.0,75,0.00,,,0.00,0,Wunderground v.1.15,2013-03-09 08:29:00,
2013-03-09 03:59:00,31.5,24.5,30.05,NW,325,0.0,7.0,75,0.00,,,0.00,0,Wunderground v.1.15,2013-03-09 08:59:00,
2013-03-09 04:29:00,32.6,27.1,30.07,NW,325,0.0,7.0,80,0.00,,,0.00,0,Wunderground v.1.15,2013-03-09 09:29:00,
2013-03-09 04:59:00,30.9,24.5,30.07,NW,325,1.0,7.0,77,0.00,,,0.00,0,Wunderground v.1.15,2013-03-09 09:59:00,
2013-03-09 05:29:00,31.6,26.4,30.08,NW,326,0.0,7.0,81,0.00,,,0.00,0,Wunderground v.1.15,2013-03-09 10:29:00,
2013-03-09 05:59:00,31.3,25.8,30.08,NW,325,0.0,7.0,80,0.00,,,0.00,0,Wunderground v.1.15,2013-03-09 10:59:00,
2013-03-09 06:29:00,30.5,25.1,30.08,North,350,0.0,7.0,80,0.00,,,0.00,0,Wunderground v.1.15,2013-03-09 11:29:00,
2013-03-09 07:00:00,29.7,24.0,30.09,North,359,0.0,7.0,79,0.00,,,0.00,0,Wunderground v.1.15,2013-03-09 12:00:00,
2013-03-09 07:30:00,29.7,24.3,30.09,WNW,292,1.0,7.0,80,0.00,,,0.00,0,Wunderground v.1.15,2013-03-09 12:30:00,
2013-03-09 08:00:00,33.0,27.8,30.11,North,359,3.0,7.0,81,0.00,,,0.00,0,Wunderground v.1.15,2013-03-09 13:00:00,
2013-03-09 08:29:00,38.5,31.9,30.12,North,359,1.0,7.0,77,0.00,,,0.00,0,Wunderground v.1.15,2013-03-09 13:29:00,
2013-03-09 08:59:00,43.2,31.4,30.12,North,359,0.0,7.0,63,0.00,,,0.00,0,Wunderground v.1.15,2013-03-09 13:59:00,
2013-03-09 09:30:00,46.6,30.8,30.12,North,357,2.0,7.0,54,0.00,,,0.00,0,Wunderground v.1.15,2013-03-09 14:30:00,
2013-03-09 09:59:00,49.2,30.3,30.13,North,356,0.0,7.0,48,0.00,,,0.00,0,Wunderground v.1.15,2013-03-09 14:59:00,
2013-03-09 10:29:00,49.4,28.9,30.11,North,9,0.0,7.0,45,0.00,,,0.00,0,Wunderground v.1.15,2013-03-09 15:29:00,
2013-03-09 10:59:00,47.7,28.4,30.10,NNE,29,4.0,7.0,47,0.00,,,0.00,0,Wunderground v.1.15,2013-03-09 15:59:00,
2013-03-09 11:29:00,50.1,30.6,30.09,NNE,32,3.0,7.0,47,0.00,,,0.00,0,Wunderground v.1.15,2013-03-09 16:29:00,
2013-03-09 11:59:00,53.9,30.7,30.08,NNE,32,1.0,7.0,41,0.00,,,0.00,0,Wunderground v.1.15,2013-03-09 16:59:00,
2013-03-09 12:30:00,57.1,32.4,30.07,NNE,32,1.0,7.0,39,0.00,,,0.00,0,Wunderground v.1.15,2013-03-09 17:30:00,
2013-03-09 12:59:00,57.4,31.3,30.06,NNE,31,1.0,7.0,37,0.00,,,0.00,0,Wunderground v.1.15,2013-03-09 17:59:00,
2013-03-09 13:29:00,59.3,30.9,30.04,NNE,31,2.0,7.0,34,0.00,,,0.00,0,Wunderground v.1.15,2013-03-09 18:29:00,
2013-03-09 14:00:00,59.3,28.6,30.03,North,351,1.0,7.0,31,0.00,,,0.00,0,Wunderground v.1.15,2013-03-09 19:00:00,
2013-03-09 14:30:00,57.7,28.0,30.03,NNE,32,5.0,7.0,32,0.00,,,0.00,0,Wunderground v.1.15,2013-03-09 19:30:00,
2013-03-09 15:00:00,57.4,27.7,30.03,NE,34,0.0,7.0,32,0.00,,,0.00,0,Wunderground v.1.15,2013-03-09 20:00:00,
2013-03-09 15:30:00,60.6,27.3,30.03,NW,309,0.0,7.0,28,0.00,,,0.00,0,Wunderground v.1.15,2013-03-09 20:30:00,
2013-03-09 16:00:00,61.5,26.3,30.01,NW,309,0.0,7.0,26,0.00,,,0.00,0,Wunderground v.1.15,2013-03-09 21:00:00,
2013-03-09 16:30:00,58.8,24.9,30.01,NW,325,3.0,7.0,27,0.00,,,0.00,0,Wunderground v.1.15,2013-03-09 21:30:00,
2013-03-09 17:00:00,57.6,25.5,30.01,NW,325,0.0,7.0,29,0.00,,,0.00,0,Wunderground v.1.15,2013-03-09 22:00:00,
2013-03-09 17:30:00,56.6,24.7,30.01,NW,325,0.0,7.0,29,0.00,,,0.00,0,Wunderground v.1.15,2013-03-09 22:30:00,
2013-03-09 18:00:00,55.4,27.5,30.01,NW,323,0.0,7.0,34,0.00,,,0.00,0,Wunderground v.1.15,2013-03-09 23:00:00,
2013-03-09 18:30:00,53.4,25.7,30.02,NW,324,0.0,7.0,34,0.00,,,0.00,0,Wunderground v.1.15,2013-03-09 23:30:00,
2013-03-09 19:00:00,50.5,26.4,30.02,NW,324,0.0,7.0,39,0.00,,,0.00,0,Wunderground v.1.15,2013-03-10 00:00:00,
2013-03-09 19:30:00,48.6,27.1,30.02,NW,325,0.0,7.0,43,0.00,,,0.00,0,Wunderground v.1.15,2013-03-10 00:30:00,
2013-03-09 20:00:00,48.1,27.2,30.02,NW,325,0.0,7.0,44,0.00,,,0.00,0,Wunderground v.1.15,2013-03-10 01:00:00,
2013-03-09 20:30:00,46.3,28.2,30.03,NW,324,0.0,7.0,49,0.00,,,0.00,0,Wunderground v.1.15,2013-03-10 01:30:00,
2013-03-09 21:00:00,43.5,28.4,30.04,NW,319,0.0,7.0,55,0.00,,,0.00,0,Wunderground v.1.15,2013-03-10 02:00:00,
2013-03-09 21:30:00,42.8,29.0,30.04,NW,323,2.0,7.0,58,0.00,,,0.00,0,Wunderground v.1.15,2013-03-10 02:30:00,
2013-03-09 22:00:00,42.6,29.3,30.04,North,0,1.0,7.0,59,0.00,,,0.00,0,Wunderground v.1.15,2013-03-10 03:00:00,
2013-03-09 22:30:00,41.2,28.8,30.05,North,0,1.0,7.0,61,0.00,,,0.00,0,Wunderground v.1.15,2013-03-10 03:30:00,
2013-03-09 23:00:00,38.3,28.7,30.04,ENE,62,1.0,7.0,68,0.00,,,0.00,0,Wunderground v.1.15,2013-03-10 04:00:00,
2013-03-09 23:30:00,38.3,29.0,30.04,ENE,63,2.0,7.0,69,0.00,,,0.00,0,Wunderground v.1.15,2013-03-10 04:30:00,